| time (UTC) | temp C | wind direction | speed KPH | gust KPH | rain 1hr cm | rain 24hr cm | rain mn cm | humidity % | barometer mb |
| 20260509192518 | 15 | 190 | 6.4 | 20.9 | 0.00 | 8.89 | 2.24 | 79 | 1008.2 |
| 20260509192042 | 15 | 190 | 6.4 | 19.3 | 0.00 | 8.89 | 2.24 | 78 | 1008.2 |
| 20260509191540 | 16 | 190 | 6.4 | 22.5 | 0.00 | 8.89 | 2.24 | 78 | 1008.2 |
| 20260509191023 | 16 | 190 | 8.0 | 25.7 | 0.00 | 8.89 | 2.24 | 77 | 1008.1 |
| 20260509190521 | 16 | 190 | 11.3 | 25.7 | 0.00 | 8.89 | 2.24 | 77 | 1008.1 |
| 20260509190025 | 16 | 190 | 8.0 | 20.9 | 0.00 | 8.89 | 2.24 | 77 | 1008.0 |
| 20260509185027 | 16 | 190 | 9.7 | 22.5 | 0.00 | 8.89 | 2.24 | 76 | 1008.0 |
| 20260509184524 | 16 | 190 | 6.4 | 27.4 | 0.00 | 8.89 | 2.24 | 76 | 1007.8 |
| 20260509184022 | 16 | 190 | 11.3 | 24.1 | 0.00 | 8.89 | 2.24 | 76 | 1007.7 |
| 20260509183516 | 16 | 190 | 8.0 | 24.1 | 0.00 | 8.89 | 2.24 | 76 | 1007.5 |
| 20260509182512 | 16 | 222 | 12.9 | 27.4 | 0.00 | 8.89 | 2.24 | 77 | 1007.5 |
| 20260509182017 | 16 | 132 | 6.4 | 25.7 | 0.00 | 8.89 | 2.24 | 77 | 1007.5 |
| 20260509181515 | 16 | 190 | 12.9 | 29.0 | 0.00 | 8.89 | 2.24 | 77 | 1007.5 |
| 20260509181040 | 16 | 243 | 8.0 | 24.1 | 0.00 | 8.89 | 2.24 | 77 | 1007.4 |
| 20260509180544 | 16 | 205 | 11.3 | 25.7 | 0.00 | 8.89 | 2.24 | 77 | 1007.5 |
| 20260509180037 | 16 | 190 | 11.3 | 25.7 | 0.00 | 8.89 | 2.24 | 77 | 1007.4 |
| 20260509175511 | 16 | 131 | 9.7 | 29.0 | 0.00 | 8.89 | 2.24 | 78 | 1007.4 |
| 20260509175037 | 16 | 227 | 11.3 | 20.9 | 0.00 | 8.89 | 2.24 | 78 | 1007.3 |
| 20260509174517 | 16 | 228 | 11.3 | 30.6 | 0.00 | 8.89 | 2.24 | 78 | 1007.3 |
| 20260509174023 | 16 | 37 | 8.0 | 20.9 | 0.00 | 8.89 | 2.24 | 78 | 1007.2 |
| 20260509173016 | 16 | 190 | 12.9 | 19.3 | 0.00 | 8.89 | 2.24 | 77 | 1007.1 |
| 20260509172530 | 16 | 249 | 4.8 | 20.9 | 0.10 | 8.89 | 2.24 | 78 | 1007.1 |
| 20260509172026 | 16 | 185 | 11.3 | 20.9 | 0.10 | 8.89 | 2.24 | 78 | 1007.0 |
| 20260509171551 | 16 | 244 | 6.4 | 20.9 | 0.10 | 8.89 | 2.24 | 79 | 1007.0 |
| 20260509171036 | 16 | 190 | 6.4 | 20.9 | 0.10 | 8.89 | 2.24 | 79 | 1006.9 |
| 20260509170513 | 16 | 190 | 4.8 | 19.3 | 0.10 | 8.89 | 2.24 | 80 | 1006.9 |
| 20260509170012 | 15 | 239 | 9.7 | 25.7 | 0.10 | 8.89 | 2.24 | 80 | 1006.9 |
| 20260509165528 | 15 | 228 | 12.9 | 27.4 | 0.10 | 8.89 | 2.24 | 81 | 1006.9 |
| 20260509165026 | 15 | 261 | 12.9 | 27.4 | 0.20 | 8.89 | 2.24 | 82 | 1006.9 |
| 20260509164537 | 15 | 225 | 11.3 | 30.6 | 0.30 | 8.89 | 2.24 | 83 | 1006.9 |
| 20260509164016 | 15 | 190 | 14.5 | 30.6 | 0.41 | 8.89 | 2.24 | 83 | 1006.7 |
| 20260509163514 | 15 | 190 | 12.9 | 30.6 | 0.51 | 8.89 | 2.24 | 83 | 1006.7 |
| 20260509163011 | 15 | 283 | 11.3 | 24.1 | 0.61 | 8.89 | 2.24 | 83 | 1006.7 |
| 20260509162555 | 15 | 241 | 4.8 | 22.5 | 0.61 | 8.79 | 2.21 | 83 | 1006.7 |
| 20260509162011 | 14 | 270 | 11.3 | 22.5 | 0.99 | 8.79 | 2.21 | 83 | 1006.6 |
| 20260509161517 | 14 | 259 | 9.7 | 20.9 | 1.60 | 8.79 | 2.21 | 83 | 1006.5 |
| 20260509161043 | 14 | 264 | 9.7 | 20.9 | 1.60 | 8.79 | 2.21 | 83 | 1006.5 |
| 20260509160520 | 14 | 259 | 9.7 | 25.7 | 1.60 | 8.79 | 2.21 | 84 | 1006.5 |
| 20260509160025 | 13 | 228 | 17.7 | 29.0 | 1.60 | 8.79 | 2.21 | 83 | 1006.5 |
| 20260509155515 | 13 | 255 | 8.0 | 25.7 | 1.60 | 8.79 | 2.21 | 83 | 1006.6 |
| 20260509155021 | 13 | 218 | 11.3 | 30.6 | 1.50 | 8.71 | 2.18 | 83 | 1006.5 |
| 20260509154516 | 13 | 247 | 17.7 | 29.0 | 1.40 | 8.61 | 2.16 | 83 | 1006.6 |
| 20260509154041 | 14 | 190 | 12.9 | 22.5 | 1.30 | 8.51 | 2.13 | 82 | 1006.6 |
| 20260509153021 | 14 | 190 | 14.5 | 37.0 | 1.09 | 8.31 | 2.08 | 80 | 1006.3 |
| 20260509152517 | 15 | 190 | 22.5 | 49.9 | 0.99 | 8.20 | 2.06 | 78 | 1006.4 |
| 20260509152016 | 16 | 190 | 29.0 | 49.9 | 0.61 | 7.80 | 1.96 | 78 | 1006.5 |
| 20260509151520 | 17 | 190 | 19.3 | 38.6 | 0.00 | 7.19 | 1.80 | 77 | 1006.2 |
| 20260509151017 | 17 | 190 | 16.1 | 38.6 | 0.00 | 7.19 | 1.80 | 75 | 1005.7 |
| 20260509150516 | 17 | 190 | 14.5 | 35.4 | 0.00 | 7.19 | 1.80 | 73 | 1005.6 |
| 20260509150015 | 17 | 190 | 19.3 | 35.4 | 0.00 | 7.19 | 1.80 | 73 | 1005.5 |
| 20260509145510 | 17 | 80 | 12.9 | 29.0 | 0.00 | 7.19 | 1.80 | 74 | 1005.7 |
| 20260509145029 | 17 | 190 | 12.9 | 32.2 | 0.00 | 7.19 | 1.80 | 73 | 1005.7 |
| 20260509144534 | 17 | 232 | 12.9 | 32.2 | 0.00 | 7.19 | 1.80 | 73 | 1005.7 |
| 20260509144012 | 18 | 248 | 11.3 | 30.6 | 0.00 | 7.19 | 1.80 | 72 | 1005.7 |
| 20260509143537 | 18 | 245 | 12.9 | 32.2 | 0.00 | 7.19 | 1.80 | 72 | 1005.6 |
| 20260509143036 | 18 | 190 | 14.5 | 30.6 | 0.00 | 7.19 | 1.80 | 70 | 1005.6 |
| 20260509142531 | 18 | 235 | 11.3 | 35.4 | 0.00 | 7.19 | 1.80 | 71 | 1005.6 |
| 20260509142028 | 18 | 200 | 17.7 | 35.4 | 0.00 | 7.19 | 1.80 | 72 | 1005.5 |
| 20260509141527 | 18 | 190 | 12.9 | 30.6 | 0.00 | 7.19 | 1.80 | 72 | 1005.4 |
| 20260509141014 | 18 | 236 | 9.7 | 37.0 | 0.00 | 7.19 | 1.80 | 72 | 1005.5 |
| 20260509140558 | 18 | 248 | 17.7 | 37.0 | 0.00 | 7.19 | 1.80 | 71 | 1005.3 |
| 20260509140022 | 18 | 195 | 12.9 | 32.2 | 0.00 | 7.19 | 1.80 | 72 | 1005.3 |
| 20260509135512 | 18 | 158 | 16.1 | 32.2 | 0.00 | 7.19 | 1.80 | 72 | 1005.2 |
| 20260509135024 | 18 | 161 | 9.7 | 38.6 | 0.00 | 7.19 | 1.80 | 73 | 1005.3 |
| 20260509134530 | 18 | 253 | 19.3 | 43.5 | 0.00 | 7.19 | 1.80 | 73 | 1005.1 |
| 20260509134028 | 18 | 218 | 14.5 | 38.6 | 0.00 | 7.19 | 1.80 | 72 | 1005.3 |
| 20260509133533 | 18 | 164 | 19.3 | 38.6 | 0.00 | 7.19 | 1.80 | 72 | 1005.2 |
| 20260509133011 | 17 | 226 | 14.5 | 38.6 | 0.00 | 7.19 | 1.80 | 72 | 1005.0 |
| 20260509132528 | 17 | 190 | 19.3 | 41.8 | 0.00 | 7.19 | 1.80 | 72 | 1005.2 |
| 20260509132046 | 17 | 230 | 16.1 | 46.7 | 0.00 | 7.19 | 1.80 | 71 | 1005.1 |
| 20260509131531 | 18 | 199 | 14.5 | 40.2 | 0.00 | 7.19 | 1.80 | 71 | 1004.9 |
| 20260509131050 | 18 | 199 | 14.5 | 40.2 | 0.00 | 7.19 | 1.80 | 71 | 1005.1 |
| 20260509130520 | 17 | 180 | 12.9 | 40.2 | 0.00 | 7.19 | 1.80 | 71 | 1005.1 |
| 20260509130025 | 17 | 151 | 19.3 | 40.2 | 0.00 | 7.19 | 1.80 | 71 | 1005.0 |
| 20260509125519 | 17 | 204 | 11.3 | 41.8 | 0.00 | 7.19 | 1.80 | 72 | 1005.0 |
| 20260509125017 | 17 | 208 | 14.5 | 33.8 | 0.00 | 7.19 | 1.80 | 72 | 1005.0 |
| 20260509124024 | 17 | 190 | 17.7 | 37.0 | 0.00 | 7.19 | 1.80 | 73 | 1004.9 |
| 20260509123521 | 17 | 190 | 9.7 | 29.0 | 0.00 | 7.19 | 1.80 | 73 | 1005.2 |
| 20260509123046 | 17 | 190 | 14.5 | 37.0 | 0.00 | 7.19 | 1.80 | 71 | 1004.9 |
| 20260509122520 | 17 | 180 | 17.7 | 37.0 | 0.00 | 7.19 | 1.80 | 71 | 1004.8 |
| 20260509122025 | 17 | 151 | 12.9 | 30.6 | 0.00 | 7.19 | 1.80 | 70 | 1004.8 |
| 20260509121550 | 17 | 190 | 14.5 | 43.5 | 0.00 | 7.19 | 1.80 | 71 | 1004.8 |
| 20260509121028 | 17 | 222 | 17.7 | 43.5 | 0.00 | 7.19 | 1.80 | 70 | 1004.7 |
| 20260509120513 | 17 | 190 | 19.3 | 41.8 | 0.00 | 7.19 | 1.80 | 68 | 1004.8 |
| 20260509120011 | 17 | 203 | 12.9 | 37.0 | 0.00 | 7.19 | 1.80 | 69 | 1004.9 |
| 20260509115528 | 17 | 272 | 16.1 | 37.0 | 0.00 | 7.19 | 1.80 | 70 | 1004.8 |
| 20260509115026 | 17 | 173 | 14.5 | 40.2 | 0.00 | 7.19 | 1.80 | 70 | 1004.8 |
| 20260509114028 | 17 | 190 | 11.3 | 30.6 | 0.00 | 7.19 | 1.80 | 72 | 1004.7 |
| 20260509113532 | 17 | 222 | 16.1 | 29.0 | 0.00 | 7.19 | 1.80 | 71 | 1004.7 |
| 20260509113036 | 17 | 190 | 8.0 | 25.7 | 0.00 | 7.19 | 1.80 | 71 | 1004.7 |
| 20260509112525 | 17 | 190 | 9.7 | 32.2 | 0.00 | 7.19 | 1.80 | 71 | 1004.7 |
| 20260509112030 | 17 | 190 | 16.1 | 32.2 | 0.00 | 7.19 | 1.80 | 71 | 1004.6 |
| 20260509111547 | 17 | 190 | 12.9 | 37.0 | 0.00 | 7.19 | 1.80 | 71 | 1004.7 |
| 20260509111031 | 17 | 190 | 17.7 | 37.0 | 0.00 | 7.19 | 1.80 | 72 | 1004.6 |
| 20260509110555 | 16 | 282 | 14.5 | 30.6 | 0.00 | 7.19 | 1.80 | 72 | 1004.4 |
| 20260509110033 | 16 | 190 | 17.7 | 32.2 | 0.00 | 7.19 | 1.80 | 72 | 1004.6 |
| 20260509105528 | 16 | 227 | 16.1 | 35.4 | 0.00 | 7.19 | 1.80 | 73 | 1004.5 |
| 20260509105027 | 16 | 190 | 14.5 | 33.8 | 0.00 | 7.19 | 1.80 | 74 | 1004.4 |
| 20260509104551 | 16 | 190 | 14.5 | 33.8 | 0.00 | 7.19 | 1.80 | 74 | 1004.5 |
| 20260509104028 | 16 | 190 | 12.9 | 30.6 | 0.00 | 7.19 | 1.80 | 74 | 1004.4 |
| 20260509103533 | 16 | 190 | 14.5 | 29.0 | 0.00 | 7.19 | 1.80 | 75 | 1004.4 |
| 20260509103032 | 16 | 243 | 9.7 | 35.4 | 0.00 | 7.19 | 1.80 | 75 | 1004.4 |
| 20260509102527 | 16 | 257 | 14.5 | 35.4 | 0.00 | 7.19 | 1.80 | 75 | 1004.4 |
| 20260509102023 | 16 | 252 | 14.5 | 29.0 | 0.00 | 7.19 | 1.80 | 75 | 1004.3 |
| 20260509101529 | 16 | 190 | 12.9 | 27.4 | 0.00 | 7.19 | 1.80 | 76 | 1004.2 |
| 20260509101046 | 15 | 190 | 9.7 | 24.1 | 0.00 | 7.19 | 1.80 | 76 | 1004.2 |
| 20260509100531 | 15 | 288 | 6.4 | 16.1 | 0.00 | 7.19 | 1.80 | 78 | 1004.1 |
| 20260509100029 | 15 | 190 | 6.4 | 22.5 | 0.00 | 7.19 | 1.80 | 79 | 1004.0 |
| 20260509095522 | 15 | 190 | 12.9 | 22.5 | 0.00 | 7.19 | 1.80 | 78 | 1004.0 |
| 20260509095020 | 15 | 190 | 9.7 | 25.7 | 0.00 | 7.19 | 1.80 | 79 | 1003.9 |
| 20260509094545 | 15 | 190 | 9.7 | 25.7 | 0.00 | 7.19 | 1.80 | 81 | 1003.8 |
| 20260509094021 | 15 | 190 | 11.3 | 20.9 | 0.00 | 7.19 | 1.80 | 81 | 1003.8 |
| 20260509093526 | 15 | 255 | 8.0 | 19.3 | 0.00 | 7.19 | 1.80 | 82 | 1003.7 |
| 20260509093045 | 15 | 190 | 9.7 | 20.9 | 0.00 | 7.19 | 1.80 | 83 | 1003.7 |
| 20260509092535 | 15 | 190 | 8.0 | 20.9 | 0.00 | 7.19 | 1.80 | 84 | 1003.7 |
| 20260509092026 | 15 | 190 | 8.0 | 19.3 | 0.00 | 7.19 | 1.80 | 84 | 1003.6 |
| 20260509091524 | 15 | 190 | 4.8 | 29.0 | 0.00 | 7.19 | 1.80 | 85 | 1003.5 |
| 20260509091021 | 14 | 190 | 14.5 | 29.0 | 0.00 | 7.19 | 1.80 | 85 | 1003.4 |
| 20260509090511 | 14 | 190 | 19.3 | 27.4 | 0.00 | 7.19 | 1.80 | 85 | 1003.4 |
| 20260509090027 | 14 | 190 | 19.3 | 25.7 | 0.00 | 7.19 | 1.80 | 85 | 1003.3 |
| 20260509085521 | 14 | 190 | 4.8 | 19.3 | 0.00 | 7.19 | 1.80 | 85 | 1003.3 |
| 20260509085025 | 13 | 190 | 11.3 | 19.3 | 0.00 | 7.19 | 1.80 | 85 | 1003.2 |
| 20260509084528 | 13 | 190 | 6.4 | 16.1 | 0.00 | 7.19 | 1.80 | 85 | 1003.2 |
| 20260509084014 | 13 | 190 | 526.3 | 526.3 | 0.00 | 0.00 | 1.80 | 85 | 1003.1 |
| 20260509083511 | 13 | 190 | 1.6 | 20.9 | 0.00 | 7.19 | 1.80 | 85 | 1003.2 |
| 20260509083037 | 13 | 190 | 9.7 | 20.9 | 0.00 | 7.19 | 1.80 | 85 | 1003.1 |
| 20260509082525 | 13 | 190 | 12.9 | 20.9 | 0.00 | 7.19 | 1.80 | 86 | 1003.1 |
| 20260509082030 | 13 | 190 | 14.5 | 20.9 | 0.00 | 7.19 | 1.80 | 86 | 1003.1 |
| 20260509081515 | 13 | 190 | 6.4 | 19.3 | 0.00 | 7.19 | 1.80 | 86 | 1003.1 |
| 20260509081014 | 13 | 190 | 9.7 | 17.7 | 0.00 | 7.19 | 1.80 | 86 | 1003.0 |
| 20260509080539 | 13 | 190 | 12.9 | 19.3 | 0.00 | 7.19 | 1.80 | 86 | 1003.0 |
| 20260509080016 | 13 | 190 | 12.9 | 20.9 | 0.00 | 7.19 | 1.80 | 86 | 1003.1 |
| 20260509075629 | 13 | 190 | 14.5 | 20.9 | 0.00 | 7.19 | 1.80 | 86 | 1003.1 |
| 20260509075027 | 13 | 190 | 11.3 | 19.3 | 0.00 | 7.19 | 1.80 | 86 | 1003.1 |
| 20260509074531 | 13 | 176 | 12.9 | 19.3 | 0.00 | 7.19 | 1.80 | 86 | 1003.1 |
| 20260509074029 | 13 | 195 | 8.0 | 12.9 | 0.00 | 7.19 | 1.80 | 86 | 1003.1 |
| 20260509073521 | 13 | 177 | 4.8 | 11.3 | 0.00 | 7.19 | 1.80 | 86 | 1003.1 |
| 20260509072015 | 12 | 135 | 6.4 | 12.9 | 0.00 | 7.19 | 1.80 | 86 | 1003.1 |
| 20260509071519 | 12 | 172 | 3.2 | 8.0 | 0.00 | 7.19 | 1.80 | 86 | 1003.1 |
| 20260509071017 | 12 | 132 | 3.2 | 6.4 | 0.00 | 7.19 | 1.80 | 86 | 1003.0 |
| 20260509070030 | 12 | 167 | 0.0 | 4.8 | 0.00 | 7.19 | 1.80 | 86 | 1003.1 |
| 20260509065519 | 12 | 167 | 1.6 | 6.4 | 0.00 | 7.19 | 1.80 | 86 | 1003.1 |
| 20260509065044 | 12 | 168 | 4.8 | 8.0 | 0.10 | 7.19 | 1.80 | 86 | 1003.1 |
| 20260509064521 | 12 | 160 | 4.8 | 8.0 | 0.10 | 7.19 | 1.80 | 86 | 1003.1 |
| 20260509064026 | 12 | 154 | 3.2 | 6.4 | 0.10 | 7.19 | 1.80 | 86 | 1003.1 |
| 20260509063525 | 12 | 156 | 3.2 | 6.4 | 0.20 | 7.19 | 1.80 | 86 | 1003.1 |
| 20260509063030 | 12 | 159 | 4.8 | 6.4 | 0.30 | 7.19 | 1.80 | 86 | 1003.2 |
| 20260509062538 | 12 | 161 | 3.2 | 6.4 | 0.30 | 7.19 | 1.80 | 85 | 1003.1 |
| 20260509062028 | 12 | 178 | 4.8 | 6.4 | 0.30 | 7.19 | 1.80 | 85 | 1003.1 |
| 20260509061528 | 12 | 214 | 3.2 | 4.8 | 0.30 | 7.19 | 1.80 | 85 | 1002.9 |
| 20260509061032 | 12 | 247 | 1.6 | 4.8 | 0.41 | 7.19 | 1.80 | 85 | 1002.9 |
| 20260509060530 | 12 | 247 | 0.0 | 4.8 | 0.41 | 7.19 | 1.80 | 85 | 1002.9 |
| 20260509060028 | 12 | 249 | 3.2 | 8.0 | 0.51 | 7.19 | 1.80 | 85 | 1002.9 |
| 20260509055526 | 12 | 249 | 3.2 | 11.3 | 0.61 | 7.19 | 1.80 | 86 | 1002.9 |
| 20260509055051 | 12 | 239 | 4.8 | 11.3 | 0.71 | 7.11 | 1.78 | 86 | 1003.0 |
| 20260509054528 | 12 | 245 | 4.8 | 12.9 | 0.79 | 7.11 | 1.78 | 86 | 1003.1 |
| 20260509054024 | 12 | 232 | 8.0 | 17.7 | 0.89 | 7.11 | 1.78 | 85 | 1003.0 |
| 20260509053529 | 12 | 256 | 3.2 | 17.7 | 1.19 | 7.01 | 1.75 | 85 | 1003.1 |
| 20260509052609 | 12 | 215 | 11.3 | 20.9 | 1.80 | 6.91 | 1.73 | 85 | 1003.0 |
| 20260509052029 | 12 | 240 | 8.0 | 25.7 | 1.80 | 6.91 | 1.73 | 85 | 1003.2 |
| 20260509051514 | 12 | 224 | 11.3 | 25.7 | 1.80 | 6.91 | 1.73 | 85 | 1003.2 |
| 20260509051047 | 13 | 185 | 8.0 | 16.1 | 1.80 | 6.81 | 1.70 | 86 | 1003.2 |
| 20260509050531 | 13 | 205 | 8.0 | 16.1 | 1.80 | 6.81 | 1.70 | 86 | 1003.1 |
| 20260509050023 | 13 | 155 | 11.3 | 19.3 | 1.70 | 6.71 | 1.68 | 85 | 1002.8 |
| 20260509045547 | 13 | 144 | 11.3 | 20.9 | 1.60 | 6.60 | 1.65 | 85 | 1002.9 |
| 20260509045031 | 13 | 122 | 12.9 | 22.5 | 1.40 | 6.40 | 1.60 | 85 | 1002.9 |
| 20260509044530 | 13 | 171 | 11.3 | 17.7 | 1.30 | 6.30 | 1.57 | 85 | 1002.9 |
| 20260509044055 | 13 | 247 | 6.4 | 16.1 | 1.19 | 6.20 | 1.55 | 85 | 1003.0 |
| 20260509043513 | 13 | 190 | 8.0 | 14.5 | 0.61 | 5.59 | 1.40 | 85 | 1002.8 |
| 20260509043037 | 13 | 143 | 8.0 | 14.5 | 0.20 | 5.21 | 1.30 | 85 | 1002.8 |
| 20260509042521 | 13 | 157 | 6.4 | 12.9 | 0.10 | 5.11 | 1.27 | 85 | 1002.8 |
| 20260509042106 | 13 | 146 | 8.0 | 11.3 | 0.10 | 5.11 | 1.27 | 85 | 1002.9 |
| 20260509041538 | 13 | 173 | 4.8 | 8.0 | 0.00 | 5.00 | 1.24 | 85 | 1003.1 |
| 20260509041015 | 13 | 190 | 3.2 | 6.4 | 0.00 | 5.00 | 1.24 | 85 | 1003.2 |
| 20260509040520 | 13 | 195 | 1.6 | 14.5 | 0.00 | 5.00 | 1.24 | 85 | 1003.2 |
| 20260509040018 | 13 | 195 | 4.8 | 14.5 | 0.00 | 5.00 | 1.24 | 85 | 1003.3 |
| 20260509035534 | 13 | 175 | 8.0 | 14.5 | 0.10 | 5.00 | 1.24 | 85 | 1003.3 |
| 20260509035051 | 13 | 166 | 3.2 | 14.5 | 0.10 | 5.00 | 1.24 | 85 | 1003.3 |
| 20260509034027 | 12 | 134 | 4.8 | 16.1 | 0.10 | 5.00 | 1.24 | 85 | 1003.4 |
| 20260509033519 | 12 | 180 | 8.0 | 16.1 | 0.20 | 5.00 | 1.24 | 85 | 1003.5 |
| 20260509033016 | 12 | 181 | 9.7 | 16.1 | 0.20 | 5.00 | 1.24 | 85 | 1003.4 |
| 20260509032532 | 12 | 168 | 8.0 | 17.7 | 0.20 | 5.00 | 1.24 | 85 | 1003.6 |
| 20260509032030 | 12 | 172 | 6.4 | 17.7 | 0.20 | 5.00 | 1.24 | 85 | 1003.6 |
| 20260509031535 | 13 | 181 | 4.8 | 17.7 | 0.20 | 5.00 | 1.24 | 85 | 1003.6 |
| 20260509031019 | 12 | 162 | 8.0 | 17.7 | 0.20 | 5.00 | 1.24 | 85 | 1003.8 |
| 20260509030558 | 12 | 173 | 9.7 | 16.1 | 0.20 | 5.00 | 1.24 | 85 | 1003.8 |
| 20260509030018 | 12 | 143 | 3.2 | 11.3 | 0.20 | 5.00 | 1.24 | 85 | 1003.9 |
| 20260509025526 | 12 | 195 | 1.6 | 4.8 | 0.10 | 4.90 | 1.22 | 85 | 1004.0 |
| 20260509025031 | 12 | 195 | 1.6 | 12.9 | 0.10 | 4.90 | 1.22 | 85 | 1004.1 |
| 20260509024529 | 12 | 195 | 4.8 | 12.9 | 0.10 | 4.90 | 1.22 | 85 | 1004.1 |
| 20260509024028 | 12 | 135 | 4.8 | 9.7 | 0.10 | 4.90 | 1.22 | 85 | 1004.2 |
| 20260509023534 | 12 | 91 | 1.6 | 6.4 | 0.00 | 4.80 | 1.19 | 85 | 1004.2 |
| 20260509023038 | 12 | 68 | 1.6 | 12.9 | 0.10 | 4.80 | 1.19 | 85 | 1004.2 |
| 20260509022524 | 12 | 19 | 6.4 | 12.9 | 0.20 | 4.80 | 1.19 | 85 | 1004.2 |
| 20260509022022 | 12 | 52 | 6.4 | 12.9 | 0.30 | 4.80 | 1.19 | 85 | 1004.2 |
| 20260509021527 | 12 | 107 | 4.8 | 11.3 | 0.61 | 4.80 | 1.19 | 85 | 1004.3 |
| 20260509021025 | 12 | 99 | 6.4 | 11.3 | 0.71 | 4.80 | 1.19 | 85 | 1004.3 |
| 20260509020529 | 12 | 166 | 3.2 | 6.4 | 0.89 | 4.80 | 1.19 | 85 | 1004.4 |
| 20260509020034 | 12 | 274 | 0.0 | 4.8 | 1.50 | 4.80 | 1.19 | 85 | 1004.5 |
| 20260509015522 | 12 | 271 | 3.2 | 4.8 | 2.11 | 4.80 | 1.19 | 85 | 1004.6 |
| 20260509015020 | 12 | 22 | 3.2 | 6.4 | 2.31 | 4.80 | 1.19 | 85 | 1004.7 |
| 20260509014545 | 12 | 68 | 0.0 | 9.7 | 2.69 | 4.80 | 1.19 | 85 | 1004.8 |
| 20260509014022 | 12 | 55 | 4.8 | 9.7 | 2.79 | 4.80 | 1.19 | 85 | 1004.7 |
| 20260509013526 | 12 | 49 | 1.6 | 6.4 | 3.00 | 4.70 | 1.17 | 85 | 1004.6 |
| 20260509013050 | 12 | 185 | 3.2 | 8.0 | 3.20 | 4.70 | 1.17 | 85 | 1004.7 |
| 20260509012518 | 12 | 190 | 1.6 | 9.7 | 3.61 | 4.60 | 1.14 | 85 | 1004.7 |
| 20260509012016 | 12 | 230 | 0.0 | 9.7 | 3.81 | 4.50 | 1.12 | 85 | 1004.9 |
| 20260509011541 | 12 | 249 | 3.2 | 14.5 | 4.09 | 4.19 | 1.04 | 85 | 1005.3 |
| 20260509011027 | 12 | 214 | 8.0 | 14.5 | 3.99 | 4.09 | 1.02 | 85 | 1005.4 |
| 20260509010525 | 12 | 190 | 8.0 | 11.3 | 3.71 | 3.81 | 0.94 | 85 | 1005.3 |
| 20260509010010 | 12 | 115 | 6.4 | 11.3 | 3.10 | 3.20 | 0.79 | 85 | 1005.4 |
| 20260509005534 | 12 | 147 | 4.8 | 9.7 | 2.59 | 2.69 | 0.66 | 84 | 1005.3 |
| 20260509004525 | 12 | 224 | 1.6 | 14.5 | 2.01 | 2.11 | 0.51 | 84 | 1005.5 |
| 20260509004023 | 12 | 216 | 4.8 | 14.5 | 1.91 | 2.01 | 0.48 | 83 | 1005.4 |
| 20260509003548 | 12 | 218 | 4.8 | 12.9 | 1.60 | 1.70 | 0.41 | 82 | 1005.5 |
| 20260509003012 | 12 | 227 | 4.8 | 12.9 | 1.30 | 1.40 | 0.33 | 81 | 1005.8 |
| 20260509002521 | 13 | 239 | 6.4 | 32.2 | 0.89 | 0.99 | 0.23 | 80 | 1005.8 |
| 20260509002026 | 14 | 236 | 6.4 | 35.4 | 0.51 | 0.61 | 0.13 | 80 | 1005.9 |
| 20260509001551 | 15 | 190 | 20.9 | 38.6 | 0.00 | 0.10 | 0.00 | 81 | 1005.8 |
| 20260509000515 | 15 | 190 | 22.5 | 32.2 | 0.00 | 0.10 | 0.00 | 80 | 1005.5 |
| 20260509000040 | 15 | 190 | 19.3 | 32.2 | 0.00 | 0.10 | 0.00 | 80 | 1005.6 |
| 20260508235535 | 15 | 190 | 27.4 | 32.2 | 0.00 | 0.10 | 0.00 | 80 | 1005.7 |
| 20260508235013 | 15 | 190 | 19.3 | 35.4 | 0.00 | 0.10 | 0.00 | 80 | 1005.6 |
| 20260508234512 | 15 | 190 | 17.7 | 41.8 | 0.00 | 0.10 | 0.00 | 80 | 1005.4 |
| 20260508234009 | 15 | 190 | 16.1 | 45.1 | 0.00 | 0.10 | 0.00 | 79 | 1005.5 |
| 20260508233514 | 15 | 190 | 30.6 | 45.1 | 0.00 | 0.10 | 0.00 | 79 | 1005.4 |
| 20260508233039 | 15 | 190 | 27.4 | 45.1 | 0.00 | 0.10 | 0.00 | 80 | 1005.4 |
| 20260508232554 | 15 | 190 | 22.5 | 0.0 | 0.00 | 0.00 | 0.00 | 79 | 1005.4 |
| 20260508232026 | 15 | 190 | 25.7 | 48.3 | 0.00 | 0.10 | 0.00 | 79 | 1005.4 |
| 20260508231542 | 15 | 190 | 14.5 | 37.0 | 0.00 | 0.10 | 0.00 | 79 | 1005.6 |
| 20260508231027 | 15 | 190 | 17.7 | 35.4 | 0.00 | 0.10 | 0.00 | 79 | 1005.6 |
| 20260508230533 | 15 | 190 | 14.5 | 38.6 | 0.00 | 0.10 | 0.00 | 79 | 1005.4 |
| 20260508230015 | 15 | 190 | 25.7 | 38.6 | 0.00 | 0.10 | 0.00 | 79 | 1005.4 |
| 20260508225550 | 15 | 190 | 24.1 | 45.1 | 0.00 | 0.10 | 0.00 | 79 | 1005.5 |
| 20260508225027 | 15 | 190 | 27.4 | 51.5 | 0.00 | 0.10 | 0.00 | 79 | 1005.4 |
| 20260508224532 | 15 | 190 | 25.7 | 56.3 | 0.00 | 0.10 | 0.03 | 79 | 1005.4 |
| 20260508224025 | 15 | 190 | 30.6 | 56.3 | 0.00 | 0.10 | 0.03 | 79 | 1005.4 |
| 20260508223511 | 15 | 190 | 19.3 | 38.6 | 0.00 | 0.10 | 0.03 | 79 | 1005.6 |
| 20260508223017 | 15 | 190 | 19.3 | 41.8 | 0.00 | 0.10 | 0.03 | 78 | 1005.7 |
| 20260508222512 | 15 | 190 | 16.1 | 48.3 | 0.00 | 0.10 | 0.03 | 78 | 1005.7 |
| 20260508222023 | 15 | 190 | 27.4 | 48.3 | 0.00 | 0.10 | 0.03 | 77 | 1005.6 |
| 20260508221521 | 15 | 190 | 24.1 | 45.1 | 0.00 | 0.10 | 0.03 | 77 | 1005.6 |
| 20260508221019 | 15 | 190 | 22.5 | 45.1 | 0.00 | 0.10 | 0.03 | 77 | 1005.7 |
| 20260508220524 | 15 | 190 | 19.3 | 45.1 | 0.00 | 0.10 | 0.03 | 78 | 1005.7 |
| 20260508220029 | 15 | 190 | 17.7 | 56.3 | 0.00 | 0.10 | 0.03 | 78 | 1005.5 |
| 20260508215525 | 15 | 190 | 27.4 | 56.3 | 0.00 | 0.10 | 0.03 | 78 | 1005.5 |
| 20260508215023 | 15 | 190 | 20.9 | 45.1 | 0.00 | 0.10 | 0.03 | 79 | 1005.4 |
| 20260508214528 | 15 | 190 | 20.9 | 38.6 | 0.00 | 0.10 | 0.03 | 80 | 1005.5 |
| 20260508213529 | 15 | 190 | 24.1 | 40.2 | 0.00 | 0.10 | 0.03 | 82 | 1005.4 |
| 20260508213034 | 15 | 190 | 20.9 | 40.2 | 0.00 | 0.10 | 0.03 | 83 | 1005.5 |
| 20260508212520 | 15 | 190 | 22.5 | 33.8 | 0.10 | 0.10 | 0.03 | 83 | 1005.6 |
| 20260508212018 | 15 | 190 | 14.5 | 22.5 | 0.10 | 0.10 | 0.03 | 83 | 1005.5 |
| 20260508211523 | 15 | 190 | 11.3 | 27.4 | 0.10 | 0.10 | 0.03 | 83 | 1005.4 |
| 20260508211021 | 15 | 190 | 11.3 | 29.0 | 0.10 | 0.10 | 0.03 | 83 | 1005.3 |
| 20260508210526 | 15 | 190 | 17.7 | 29.0 | 0.10 | 0.10 | 0.03 | 83 | 1005.5 |
| 20260508210024 | 15 | 190 | 12.9 | 25.7 | 0.10 | 0.10 | 0.03 | 83 | 1005.2 |
| 20260508205520 | 15 | 190 | 11.3 | 27.4 | 0.10 | 0.10 | 0.03 | 82 | 1005.2 |
| 20260508205019 | 15 | 190 | 11.3 | 30.6 | 0.10 | 0.10 | 0.03 | 82 | 1004.9 |
| 20260508204544 | 15 | 190 | 16.1 | 37.0 | 0.10 | 0.10 | 0.03 | 82 | 1005.0 |
| 20260508203509 | 15 | 190 | 14.5 | 35.4 | 0.10 | 0.10 | 0.03 | 82 | 1004.9 |
| 20260508203035 | 15 | 190 | 19.3 | 35.4 | 0.10 | 0.10 | 0.03 | 82 | 1005.3 |
| 20260508202530 | 15 | 190 | 16.1 | 29.0 | 0.00 | 0.00 | 0.00 | 81 | 1005.3 |
| 20260508202028 | 15 | 190 | 12.9 | 33.8 | 0.00 | 0.00 | 0.00 | 81 | 1005.4 |
| 20260508201553 | 15 | 190 | 17.7 | 33.8 | 0.00 | 0.00 | 0.00 | 81 | 1005.6 |
| 20260508200544 | 16 | 190 | 9.7 | 24.1 | 0.00 | 0.00 | 0.00 | 80 | 1005.9 |
| 20260508200021 | 16 | 190 | 14.5 | 24.1 | 0.00 | 0.00 | 0.00 | 80 | 1006.0 |
| 20260508195536 | 16 | 190 | 12.9 | 24.1 | 0.00 | 0.00 | 0.00 | 79 | 1005.9 |
| 20260508195035 | 16 | 190 | 11.3 | 25.7 | 0.00 | 0.00 | 0.00 | 79 | 1005.8 |
| 20260508194046 | 16 | 190 | 17.7 | 32.2 | 0.00 | 0.00 | 0.00 | 77 | 1005.9 |
| 20260508193522 | 16 | 190 | 12.9 | 22.5 | 0.00 | 0.00 | 0.00 | 77 | 1006.0 |
| 20260508193020 | 16 | 190 | 9.7 | 20.9 | 0.00 | 0.00 | 0.00 | 77 | 1006.0 |